Tracking 19177 objects as of 25-May-2018
HD Live streaming from Space Station
objects crossing your sky now

NOAA 16 DEB

Track NOAA 16 DEB now!
10-day predictions


NORAD ID: 41165
Int'l Code: 2000-055CY
Perigee: 849.2 km
Apogee: 889.1 km
Inclination: 98.8 °
Period: 102.2 minutes
Semi major axis: 7240 km
RCS: Unknown
Launch date: September 21, 2000
Source: United States (US)
Launch site: AIR FORCE WESTERN TEST RANGE (AFWTR)

Note: This is SATELLITE DEBRIS
aabbcc
Your satellite tracking list
Your tracking list is empty




NASA's NSSDC Master Catalog

Two Line Element Set (TLE):
1 41165U 00055CY  18144.41673910 +.00000572 +00000-0 +35204-3 0  9997
2 41165 098.7635 202.8375 0027521 187.9292 172.1447 14.09232202127268
Source of the keplerian elements: AFSPC